Theta_e
315 316 318 318 318 318 319 318 317 318 317 316 317 316 315 314 314 317 317 310 309 311 312 313 313 313 313 313 313 313 313 313 312 313 312 313 313 313 314 313 313 312 311 309 307 306 304 303 302 300 300 299 299 299 298 298 298 297 297 296 295 295 294 294 294 293 293 293 293 294 293 293 292 292 292 290 290 290 290 290 289 288 289 289 289 289
315 316 317 318 318 318 318 318 318 317 317 316 316 315 315 315 316 318 316 308 307 310 311 313 312 312 313 312 313 312 312 312 312 312 312 313 313 314 315 314 314 313 311 309 307 306 304 302 301 299 299 299 298 298 298 298 298 297 296 296 295 295 294 294 293 293 293 294 294 294 294 294 293 293 292 292 291 290 290 289 288 288 288 288 288 288
316 316 317 317 317 316 316 316 316 316 316 316 316 315 315 316 317 318 314 308 307 309 311 313 312 312 313 312 313 312 312 312 313 313 313 314 314 314 315 315 315 313 310 308 306 305 303 302 300 298 297 298 298 297 297 297 297 297 296 296 295 294 293 293 293 293 294 294 294 294 294 294 293 292 292 292 291 290 289 288 288 288 288 288 288 288
316 316 316 316 316 316 315 314 314 314 315 316 316 315 315 317 318 316 312 309 308 309 310 312 311 312 313 312 313 313 313 313 314 314 315 315 315 315 316 316 316 313 310 308 306 304 303 301 300 298 297 297 297 297 296 296 296 296 296 296 295 294 293 293 293 293 294 294 294 293 293 293 292 291 290 290 289 289 288 288 288 288 288 288 287 287
317 316 315 315 315 316 316 315 314 314 314 316 317 316 316 317 317 317 315 312 311 311 310 311 312 313 314 315 315 314 314 313 313 313 313 314 314 315 316 316 316 314 311 309 307 305 302 301 300 298 297 296 296 296 295 296 296 296 296 295 295 294 293 293 293 293 293 293 292 292 291 291 290 290 289 289 289 289 288 288 288 288 288 287 287 287
316 314 314 315 315 315 316 316 316 316 315 315 318 318 318 317 318 318 318 315 314 314 312 312 314 313 313 315 316 315 314 312 312 312 311 312 314 315 315 315 315 314 312 311 309 305 302 301 300 298 297 295 295 295 295 295 295 295 295 295 295 294 293 293 293 292 292 291 291 290 290 290 290 291 291 291 291 291 290 289 289 289 288 287 287 286
316 312 312 316 317 317 317 316 316 317 314 314 318 319 318 318 318 318 317 315 314 314 313 312 314 315 314 313 315 315 314 313 314 314 314 313 314 315 317 318 316 312 311 311 309 306 303 301 300 298 296 295 295 295 295 294 294 294 294 295 295 294 294 293 292 291 291 291 291 290 291 291 292 292 292 292 292 292 291 290 289 288 287 287 286 286
317 314 313 316 316 317 316 316 317 317 315 315 316 316 315 315 316 316 316 315 314 314 314 313 314 315 315 314 315 314 313 313 313 314 315 315 314 315 316 319 317 312 311 311 309 306 303 302 300 299 297 295 295 294 294 294 294 294 294 294 294 294 293 293 292 291 290 290 291 291 292 292 293 293 293 292 291 290 289 288 288 287 287 286 286 285
318 317 316 315 314 316 317 316 317 317 316 315 312 312 313 314 314 314 314 314 314 314 315 315 314 315 316 315 315 314 312 312 312 312 313 313 315 316 315 319 318 313 312 311 309 306 304 302 301 299 297 295 294 294 294 294 293 293 293 294 294 293 293 292 291 291 290 290 291 291 291 292 292 292 292 291 290 289 288 288 287 287 286 286 286 285
315 312 313 315 315 317 315 312 313 317 316 312 310 311 312 312 312 312 313 313 313 315 316 316 315 315 316 314 314 315 312 312 313 312 313 314 315 317 317 320 317 312 312 311 309 307 305 303 301 299 297 295 294 294 293 293 293 293 293 293 293 293 292 292 291 290 290 290 290 291 291 291 291 291 290 290 289 288 288 288 287 287 286 286 286 286
310 306 308 313 315 313 310 306 307 312 312 310 312 313 313 313 311 311 312 312 314 317 318 317 315 315 316 314 313 314 313 313 314 313 314 315 315 316 319 320 315 312 311 310 308 307 305 303 301 298 296 295 294 293 293 293 293 293 293 293 293 292 292 291 291 290 290 290 290 290 290 290 290 290 290 289 289 289 288 288 287 287 287 287 286 285
312 309 310 312 312 310 309 308 307 307 308 311 313 312 314 314 312 312 312 312 315 318 316 316 317 316 315 314 313 314 314 313 314 314 313 315 314 316 321 319 313 312 310 308 307 306 304 302 299 298 296 295 293 293 293 293 292 292 292 292 292 292 291 291 290 290 289 289 289 289 289 289 289 289 289 289 289 288 288 287 287 287 287 286 286 285
317 315 314 313 310 309 312 312 308 306 307 311 312 312 315 316 315 317 316 315 317 317 314 313 316 318 316 313 313 313 313 313 314 314 313 314 313 316 323 318 312 310 308 306 305 304 303 300 299 297 296 295 293 293 292 292 292 292 292 292 292 292 291 291 290 290 289 289 289 289 289 288 288 288 288 288 288 288 287 287 286 286 286 286 285 285
318 318 315 314 311 309 312 314 313 311 308 309 312 313 316 317 318 320 318 317 318 316 313 310 313 316 313 312 313 313 313 313 313 313 315 315 314 317 323 317 311 308 306 304 303 303 302 300 299 297 296 295 293 293 292 292 292 292 292 292 291 291 291 290 290 289 289 289 288 288 288 288 288 288 288 287 287 287 286 286 285 285 285 285 285 284
317 317 315 316 315 312 312 313 316 315 310 310 313 314 315 316 316 317 316 315 316 315 313 310 311 312 311 311 314 314 313 314 313 313 315 316 316 319 320 314 309 305 303 303 302 302 301 300 299 297 296 295 294 293 292 292 292 292 292 291 291 291 291 290 290 289 289 288 288 288 288 287 287 287 287 287 286 286 285 285 285 284 284 284 284 284
316 317 318 316 314 312 313 315 316 315 313 311 312 314 315 315 315 315 315 315 314 314 314 312 311 311 311 312 314 314 314 314 313 314 314 315 316 318 318 314 310 305 302 302 302 301 300 299 299 297 296 295 294 292 292 292 292 292 291 291 291 291 290 290 289 289 288 288 288 287 287 287 287 286 286 286 286 285 285 285 284 284 284 284 284 284
314 317 318 312 310 309 308 312 314 314 314 313 312 314 315 315 316 316 317 315 313 314 315 314 313 312 312 314 314 313 313 312 312 313 313 314 315 316 317 316 312 307 304 303 302 301 300 299 298 297 296 295 293 292 292 292 292 291 291 291 291 291 290 289 289 288 288 288 287 287 287 286 286 286 286 285 285 285 284 284 284 284 283 283 283 283
315 316 317 313 312 307 303 307 310 309 312 312 312 314 313 313 313 313 316 316 314 316 315 313 314 312 311 314 314 312 312 311 311 312 312 313 314 315 316 316 314 310 307 304 302 301 300 299 298 297 296 294 293 292 292 291 291 291 291 291 291 291 290 289 288 288 288 287 287 287 286 286 286 285 285 284 284 284 284 283 283 283 283 283 283 282
317 316 317 312 310 307 303 307 311 308 308 309 310 311 311 312 313 313 315 315 314 316 315 313 313 312 313 314 313 312 312 311 311 312 312 311 312 314 314 315 314 311 309 306 304 302 300 299 298 297 295 294 293 292 292 291 291 291 291 291 291 290 289 289 288 288 288 287 287 286 286 286 285 285 284 284 283 283 283 283 283 283 283 282 281 280
316 316 317 309 306 308 306 308 312 311 308 306 307 309 309 311 312 313 314 314 313 314 314 315 315 314 314 313 313 313 312 312 312 312 313 312 312 314 314 314 313 312 311 309 306 304 301 299 298 297 295 294 293 292 292 291 291 291 291 290 290 290 289 288 288 287 287 287 287 286 285 285 284 284 284 283 283 283 283 283 283 283 282 281 279 279
315 315 316 309 304 308 309 309 312 312 311 308 308 309 309 309 310 311 312 313 313 314 313 314 315 313 313 313 313 314 312 312 313 313 314 314 313 314 315 314 314 313 311 310 308 305 303 300 298 297 295 294 293 292 292 291 291 291 290 290 290 290 289 288 288 287 287 286 286 286 285 284 284 283 283 283 283 283 283 283 283 282 281 279 278 278
314 314 315 312 308 310 311 312 312 314 314 312 310 311 311 311 311 311 314 314 312 313 313 314 315 313 312 313 312 312 312 312 312 312 313 315 315 315 316 315 314 313 312 310 308 306 303 301 298 296 295 294 293 292 292 291 291 290 290 290 290 289 288 288 287 287 286 286 285 285 284 283 283 283 282 282 282 282 282 282 282 281 280 278 278 277
316 315 315 315 314 314 313 311 312 314 314 313 312 312 312 312 312 313 315 314 312 312 313 314 315 315 313 313 313 311 312 311 312 312 312 314 316 315 315 316 315 314 312 310 308 305 303 300 297 296 295 294 293 292 291 291 290 290 290 289 289 289 288 287 287 286 286 285 284 284 283 283 282 282 282 281 282 282 282 281 280 279 278 278 277 277
316 315 314 314 314 314 313 309 307 308 309 311 312 312 313 312 312 313 313 313 313 313 313 313 315 315 314 315 313 312 313 313 312 312 311 312 314 313 314 315 314 313 310 308 306 304 301 299 297 295 294 293 293 292 291 291 290 290 290 289 289 289 288 287 287 286 285 284 284 283 283 282 281 281 281 281 281 282 281 280 279 278 277 277 277 276
315 315 314 314 314 314 314 311 308 307 307 309 310 311 313 313 313 315 312 311 312 314 313 313 314 314 313 315 314 312 313 312 311 311 311 312 313 312 312 313 312 311 309 307 305 302 300 298 296 295 294 293 293 292 291 291 290 290 289 289 289 288 287 287 286 285 284 284 283 282 282 281 281 281 281 281 281 281 280 279 278 277 277 276 276 276
313 315 313 313 314 315 315 314 313 310 307 308 310 311 313 314 314 314 312 312 313 313 313 313 313 312 312 313 312 311 312 312 311 312 312 312 312 312 312 312 311 310 308 307 306 303 300 298 296 295 294 293 293 292 291 291 290 290 289 289 288 288 287 286 285 285 284 283 283 282 281 281 280 280 280 281 280 280 279 278 277 276 276 276 275 275
314 315 312 312 313 313 313 314 314 313 309 308 310 310 311 313 314 313 312 313 313 313 312 313 313 313 313 312 311 311 311 311 311 311 312 312 311 311 311 311 311 309 308 307 306 303 300 298 297 295 294 293 293 292 291 291 290 289 289 288 288 287 286 285 285 284 283 282 282 281 280 280 280 280 280 280 279 278 278 277 276 276 276 276 275 275
313 313 311 311 312 312 312 312 313 313 312 310 311 311 311 312 314 315 314 313 313 313 313 313 313 314 313 312 311 312 311 311 311 311 312 311 311 310 309 308 308 308 307 307 305 303 301 299 297 295 294 293 293 292 291 290 290 289 289 288 288 286 285 285 284 283 282 282 281 281 280 280 280 280 280 279 278 278 277 276 276 276 275 276 276 276
310 311 311 312 312 312 311 311 311 312 311 311 312 312 311 312 313 314 313 312 313 313 312 312 313 314 313 311 311 311 311 311 311 311 311 311 310 311 309 308 308 308 307 307 306 304 302 300 299 297 295 294 293 292 291 290 289 289 288 288 287 286 285 284 283 282 282 281 281 280 280 280 280 279 279 278 277 277 276 276 276 276 276 276 276 275
310 310 311 311 311 311 311 311 311 311 311 312 313 313 313 313 312 312 312 312 312 312 312 312 312 313 312 311 311 310 310 310 311 311 310 310 310 311 311 310 309 308 308 308 307 306 304 302 301 299 297 295 293 292 291 290 289 289 288 287 286 285 284 284 283 282 281 281 281 280 280 279 279 278 278 278 277 276 276 276 276 276 276 276 275 275
311 310 311 311 312 312 311 311 312 312 313 313 313 313 312 312 312 312 312 312 312 312 312 312 313 312 311 310 310 310 310 310 310 310 310 310 310 310 310 309 309 309 309 309 308 308 306 304 302 301 299 297 294 292 291 290 289 288 288 287 285 284 284 283 282 282 281 281 280 280 279 279 278 278 277 277 276 276 275 276 276 275 275 275 275 275
311 310 311 312 312 313 312 312 312 312 313 312 312 312 311 311 311 311 311 312 312 312 312 313 313 312 310 310 310 310 310 310 310 310 310 310 310 309 309 309 309 309 309 309 309 309 308 306 304 302 301 299 295 293 291 290 289 288 287 286 285 284 283 282 282 281 281 280 280 279 279 278 278 277 276 276 275 275 275 276 275 275 275 275 275 274
310 310 311 312 313 313 312 312 312 312 313 313 312 312 311 311 311 311 311 311 311 312 312 313 312 311 311 310 310 310 310 310 310 310 310 310 309 309 310 310 310 309 309 309 309 309 309 307 305 303 302 300 296 293 292 291 289 288 287 286 284 283 282 282 281 281 280 280 279 278 278 277 277 276 275 275 275 275 275 275 275 274 274 274 274 273
310 310 310 311 313 313 312 312 312 313 314 314 313 312 311 311 311 311 311 311 310 311 311 311 311 310 310 311 310 310 310 310 310 310 310 310 310 310 310 310 310 310 310 310 310 309 309 308 306 304 301 299 296 294 292 291 289 288 287 285 283 282 282 281 281 280 280 279 278 278 277 277 276 275 275 274 275 275 275 274 274 274 273 273 273 271
311 310 310 311 312 312 312 313 314 315 314 313 312 312 310 310 310 311 311 311 310 311 311 311 311 310 310 310 310 310 310 310 310 310 310 310 310 310 310 310 310 310 309 309 309 308 308 308 307 305 301 298 296 293 291 290 289 287 286 284 283 282 281 280 280 279 279 278 277 277 276 276 275 275 274 274 274 274 274 274 273 273 273 272 271 269
311 311 311 312 312 313 313 313 315 316 313 311 311 311 310 311 311 311 312 311 310 310 311 311 310 310 310 311 311 311 311 310 311 311 310 310 310 310 310 309 309 309 309 309 308 308 308 308 307 304 300 296 294 292 290 289 288 286 284 283 282 281 280 280 279 279 278 277 276 276 276 275 275 274 273 273 273 273 273 273 273 272 272 271 269 268
311 311 312 312 313 313 313 313 314 315 314 313 313 312 311 311 311 312 313 313 310 310 311 310 310 310 311 311 311 311 311 311 311 311 310 310 311 311 310 309 309 309 308 308 308 308 307 306 304 301 298 294 292 291 289 288 287 285 283 281 281 280 279 279 279 278 277 276 276 275 274 275 274 273 273 273 273 273 272 272 272 271 270 269 268 268
310 311 312 313 314 314 314 313 314 315 315 315 314 313 311 311 311 312 314 314 312 311 311 310 311 311 311 311 311 311 311 312 311 311 310 310 310 310 310 309 309 309 309 308 308 308 306 302 301 299 296 293 291 290 289 287 286 284 282 280 280 279 279 278 278 277 276 276 275 274 274 274 274 274 273 273 273 272 272 271 271 270 269 268 268 268
310 310 311 312 313 314 315 315 315 315 315 314 313 313 312 312 312 312 315 315 314 312 311 311 311 311 311 311 311 311 312 312 312 311 310 310 310 310 309 309 309 308 308 307 307 308 305 300 297 296 294 292 290 289 288 287 285 283 281 280 279 278 278 278 277 277 276 275 274 274 274 274 274 274 273 273 273 272 272 271 270 270 269 268 268 268
311 310 311 312 312 313 314 315 315 315 315 314 312 311 312 312 312 315 316 317 314 311 312 312 312 312 312 312 312 312 312 312 311 311 310 310 310 310 309 309 308 309 309 308 306 304 301 298 296 296 294 291 290 288 287 286 284 282 281 279 278 278 278 277 277 276 275 274 274 273 273 273 273 273 273 273 272 272 271 271 270 269 268 268 267 267
312 311 311 312 312 312 313 314 315 314 315 314 312 311 311 312 313 316 316 316 312 312 312 311 312 312 311 311 311 311 311 311 311 310 310 310 309 309 309 308 308 307 307 306 304 300 297 295 295 295 293 291 289 287 286 284 283 281 280 278 278 277 277 277 276 275 274 274 273 272 273 273 273 273 273 273 272 271 270 270 270 269 268 267 267 267
313 312 312 312 312 312 312 313 314 314 314 312 311 311 312 313 314 315 314 312 312 312 312 312 312 311 311 311 311 311 311 310 310 309 309 309 308 309 309 308 307 305 302 300 298 296 294 294 293 292 291 289 287 286 284 283 282 281 279 278 278 277 277 276 275 274 273 273 272 272 273 273 273 273 272 272 271 271 270 269 269 268 268 267 267 266
314 314 313 313 312 312 313 313 314 314 315 313 312 312 312 313 314 313 311 312 313 312 311 312 312 311 311 311 310 311 310 309 309 309 309 309 308 308 308 308 307 305 301 299 298 295 294 295 294 291 289 287 286 284 283 283 282 280 279 278 278 277 276 275 274 273 272 272 272 272 273 273 273 272 272 271 271 270 269 268 268 268 267 267 266 266
315 315 315 314 312 313 314 314 314 314 313 312 312 312 312 312 312 311 311 312 312 312 312 312 311 311 311 311 310 310 310 309 309 309 308 308 308 308 308 308 307 304 301 299 297 294 293 295 294 290 286 284 284 283 282 282 281 279 278 278 276 275 274 274 273 272 272 272 272 272 272 272 272 271 271 271 270 270 268 268 267 267 267 267 266 266
313 312 311 311 311 312 312 312 312 312 312 311 311 311 312 312 312 313 313 312 311 311 311 311 310 310 309 309 309 309 309 309 309 309 309 308 308 308 308 308 306 303 300 298 295 292 291 293 292 288 284 282 282 281 281 282 280 278 277 276 275 274 273 272 272 272 271 271 271 271 270 270 270 270 270 270 270 269 268 267 267 266 266 266 266 267
308 307 307 307 308 309 310 311 311 310 310 310 309 308 310 311 311 310 311 310 309 309 309 308 307 307 307 307 307 306 306 306 306 307 307 307 307 307 307 307 304 300 298 297 294 290 289 289 288 287 284 282 280 280 281 281 280 278 277 275 274 273 272 272 271 270 270 269 268 268 268 268 267 268 269 269 269 268 268 267 267 266 266 266 267 268
305 306 304 303 304 305 308 308 306 305 305 305 305 307 309 310 310 309 309 309 308 308 307 306 306 306 306 306 306 305 305 305 305 305 305 305 306 306 306 306 304 300 298 297 293 288 288 288 288 286 284 281 279 279 280 280 280 278 276 273 272 272 272 271 271 269 268 267 266 266 267 267 266 266 267 267 267 267 266 266 266 266 266 267 267 267
303 303 300 299 300 301 301 301 300 300 300 301 305 308 310 310 310 310 309 309 308 307 307 306 306 307 307 307 307 307 306 306 306 306 306 306 305 305 305 306 305 301 298 294 289 286 288 289 288 286 284 281 279 278 279 279 278 276 274 272 272 272 271 271 270 268 267 266 266 265 266 266 266 266 266 266 266 266 266 266 266 266 267 267 267 267
298 298 297 297 297 297 298 298 298 299 300 302 307 309 308 308 308 307 306 306 306 306 306 306 306 307 307 308 308 308 308 308 307 307 307 307 306 305 305 306 305 303 300 295 288 286 288 289 287 286 283 280 278 277 278 278 277 274 273 272 271 272 271 269 269 267 266 265 265 265 265 266 266 266 265 265 265 265 266 267 267 266 267 267 267 267
295 295 295 296 297 297 297 297 298 299 301 303 304 304 302 302 302 301 301 301 301 302 304 304 304 305 305 306 306 306 306 307 306 306 306 306 306 305 305 305 305 304 300 295 289 286 286 286 285 284 282 278 277 276 277 277 275 273 272 271 271 272 271 269 267 266 265 264 264 265 265 265 265 265 265 265 265 265 266 267 267 266 266 266 267 268
294 295 295 296 297 297 297 297 298 298 298 298 297 296 296 296 296 295 296 296 296 297 298 298 299 300 301 301 302 303 304 304 304 305 306 305 305 305 304 305 305 304 301 296 291 289 287 285 283 283 280 277 276 276 276 275 273 271 271 271 271 271 271 269 266 265 265 264 264 265 265 264 264 264 265 265 265 265 265 265 266 266 267 267 267 268
Wind_Speed
3 5 8 9 12 13 12 13 15 16 13 11 10 9 12 12 12 16 8 5 6 5 10 16 17 19 20 19 18 17 17 18 19 19 18 19 17 13 14 15 14 13 9 11 16 19 22 21 22 22 21 23 24 23 25 26 27 26 27 29 27 25 25 23 21 22 20 17 16 15 14 13 13 12 12 13 12 11 10 11 10 8 9 11 12 13
3 7 12 15 16 12 8 8 11 14 12 10 11 10 11 11 12 15 6 5 6 4 9 14 16 19 18 17 18 18 18 19 20 20 20 21 18 14 15 16 14 9 7 10 13 15 19 20 21 22 21 23 25 24 26 27 26 26 27 29 28 26 25 23 22 23 21 18 16 15 15 13 13 13 12 11 11 11 11 11 9 9 10 12 13 13
6 10 17 18 10 4 2 4 8 12 12 10 8 7 10 9 11 12 2 6 5 3 8 11 14 17 18 19 19 20 20 18 19 21 20 19 17 15 15 13 10 7 9 10 11 13 16 19 21 21 19 22 25 24 26 27 27 27 25 27 26 24 25 23 22 23 19 17 16 14 14 13 12 12 13 12 12 12 11 10 10 10 11 12 13 13
7 9 14 11 5 5 7 5 6 9 9 9 7 7 9 8 8 8 2 3 5 7 8 12 12 14 16 18 19 22 21 17 17 19 18 16 15 16 14 10 8 9 11 11 12 12 14 17 19 19 18 21 24 23 25 26 27 27 26 26 25 24 25 23 23 22 17 18 19 17 17 16 13 12 14 14 12 11 10 10 11 11 12 13 13 13
13 8 1 1 3 7 9 5 7 8 6 9 10 10 11 10 11 10 3 3 7 8 4 9 12 12 12 13 14 14 13 12 13 13 14 15 14 14 13 11 9 9 10 10 13 13 14 16 18 20 19 21 23 23 27 29 29 29 27 25 24 25 26 24 24 23 20 22 23 20 18 17 14 11 11 11 9 10 11 11 12 12 12 12 12 13
16 6 4 3 4 6 8 7 8 8 7 9 11 14 16 14 14 12 6 7 8 6 1 4 11 8 6 8 8 5 6 7 7 8 12 14 13 11 11 10 9 9 9 9 12 13 14 14 17 19 20 22 23 23 28 31 31 32 29 25 24 24 24 24 26 27 25 24 24 21 18 14 13 11 10 10 9 9 10 10 11 12 12 12 13 14
8 3 3 6 7 6 8 10 10 9 8 8 4 6 11 13 13 12 9 5 6 7 0 3 8 9 3 4 7 5 6 8 6 8 12 11 10 9 9 7 8 10 9 9 11 13 14 14 15 18 21 23 24 24 29 32 33 34 31 28 26 24 24 25 28 30 28 25 22 20 17 13 12 12 11 11 11 10 10 10 11 12 12 12 13 14
5 5 3 7 7 7 9 10 9 11 8 5 1 3 2 5 8 8 7 5 6 9 5 4 4 12 8 5 9 9 8 9 8 11 12 11 10 11 11 7 8 10 10 9 10 13 14 14 15 18 21 23 24 24 29 32 33 34 34 32 29 27 27 28 30 31 30 26 21 18 17 13 12 11 10 10 12 12 11 12 12 11 11 12 13 14
4 6 6 9 7 7 8 3 3 11 9 1 3 3 3 1 2 2 4 6 7 8 7 6 7 10 11 4 11 12 11 11 12 14 14 14 12 11 12 8 7 9 10 10 11 12 13 14 16 19 20 22 24 26 29 32 33 33 34 34 33 32 30 30 31 31 31 27 22 20 18 15 13 12 11 11 12 13 12 12 12 11 11 12 14 15
3 1 2 7 8 7 3 4 4 5 5 2 4 5 5 3 1 1 4 5 6 8 9 8 10 7 11 3 9 7 8 10 12 12 13 14 12 9 9 6 6 7 8 9 10 12 12 14 17 18 19 21 24 27 29 31 32 32 33 35 36 35 33 32 32 33 31 28 25 23 21 18 16 14 13 12 12 12 11 11 11 11 11 10 11 11
2 3 2 4 5 2 4 6 6 3 2 4 4 2 2 3 2 2 4 2 5 10 10 12 16 11 10 1 9 6 8 11 10 8 10 10 9 8 6 6 7 7 7 7 8 10 11 13 16 17 18 21 23 24 26 28 31 33 35 37 37 37 35 33 33 34 32 30 28 26 25 23 20 16 15 14 12 11 10 10 10 10 10 9 10 11
6 5 3 2 1 3 5 4 4 4 1 3 3 2 2 4 2 3 4 2 6 10 5 12 19 17 11 4 6 6 10 13 9 6 9 9 9 7 3 6 6 7 7 8 7 8 9 11 14 16 17 20 22 23 25 27 30 32 35 37 36 37 36 35 35 35 34 32 31 28 27 26 23 20 19 17 14 12 12 12 11 10 10 10 10 11
6 8 8 3 1 5 5 2 2 2 2 4 4 4 4 5 3 5 5 4 8 7 2 7 11 13 13 10 9 8 7 11 9 6 10 10 9 7 2 6 5 5 6 7 7 7 9 9 11 13 16 20 22 23 26 27 28 31 33 34 34 35 36 37 37 36 35 34 33 30 28 27 25 23 21 20 17 15 14 14 14 13 12 10 10 10
3 3 8 7 2 7 11 8 5 4 7 8 7 6 5 5 5 6 6 6 9 6 3 5 3 6 9 9 14 18 15 13 9 8 10 9 10 7 3 5 4 5 5 6 7 8 8 9 10 12 16 19 20 23 26 26 28 30 30 32 33 33 34 37 38 38 36 35 34 32 30 28 26 24 23 21 20 18 17 17 16 16 16 13 12 12
6 6 9 10 4 11 16 13 5 3 7 10 7 6 7 6 6 7 7 8 8 6 1 4 2 5 5 1 9 15 17 15 10 9 10 9 10 7 4 4 4 5 6 5 6 7 9 10 10 12 16 19 20 23 26 26 27 28 29 32 34 32 34 38 39 38 37 35 34 32 30 28 26 25 24 22 21 21 20 19 19 18 17 15 14 14
7 9 7 7 2 12 14 8 3 4 4 7 5 6 7 6 7 8 9 7 4 7 6 5 4 7 7 5 5 6 8 13 11 11 11 9 10 7 4 5 5 5 6 6 7 8 9 10 10 13 16 18 19 22 25 27 28 30 30 33 34 33 35 39 39 39 38 36 34 32 31 29 26 25 24 23 22 22 22 22 21 19 18 17 15 15
5 5 6 5 1 6 4 1 4 2 2 5 6 7 4 1 3 7 9 3 1 7 8 5 7 8 10 11 7 10 9 13 12 12 12 11 11 10 7 7 7 7 7 7 7 7 8 9 10 13 16 18 20 23 26 28 30 30 30 32 32 31 34 38 40 39 38 36 34 33 32 30 28 27 26 24 23 23 24 23 21 20 18 17 16 16
5 4 3 4 1 2 2 3 1 2 1 4 4 4 2 2 1 4 7 4 4 10 9 9 13 11 10 8 8 14 13 14 14 14 12 11 10 9 9 8 8 8 7 7 7 7 8 9 10 13 17 19 21 23 25 26 28 28 28 30 32 31 34 38 38 39 38 37 35 34 33 31 30 29 28 26 24 24 24 23 22 20 18 17 16 16
2 3 3 1 0 3 2 2 3 2 2 1 2 1 1 2 4 5 6 5 7 9 9 15 18 14 12 8 5 13 15 15 16 15 10 11 11 9 10 10 9 8 7 7 9 8 9 9 10 13 16 17 19 21 22 24 25 25 26 29 30 30 33 37 37 38 37 37 37 35 34 33 31 30 29 27 26 25 25 23 21 19 18 16 15 15
3 4 4 1 2 3 3 4 5 5 4 0 3 2 1 2 3 5 5 5 7 8 9 14 16 13 10 8 7 11 15 16 16 13 10 11 12 10 9 10 9 8 8 8 9 9 9 9 11 14 16 17 19 20 21 23 24 25 25 28 29 27 31 36 37 38 37 36 37 36 34 33 31 31 30 29 28 27 25 23 21 19 17 16 15 15
2 4 6 1 1 3 5 7 9 10 9 5 5 6 5 3 1 3 4 6 7 7 7 9 13 14 5 1 5 8 11 12 10 8 9 9 10 9 9 9 9 8 8 8 9 9 8 8 9 13 15 16 18 19 21 22 23 24 24 27 29 27 30 35 36 38 38 37 37 37 35 33 32 31 30 29 29 28 25 23 20 18 17 16 15 15
4 5 7 3 3 7 7 8 11 12 10 9 9 9 10 8 5 4 7 7 4 5 8 7 11 16 4 6 5 6 5 5 5 5 7 6 8 8 8 9 9 8 9 8 8 8 7 6 7 11 14 16 17 18 20 21 22 24 25 27 28 28 31 35 36 39 40 38 38 38 35 34 33 32 31 30 29 27 25 22 20 18 17 16 16 16
4 2 7 8 7 8 5 2 2 3 3 4 7 9 9 9 9 9 8 5 3 5 8 8 11 17 7 6 4 2 0 4 5 6 8 7 7 8 8 9 8 9 9 7 7 6 6 6 7 10 13 16 17 18 20 21 22 24 25 27 28 28 30 33 36 39 40 38 38 37 35 34 34 33 32 30 29 27 24 22 19 18 17 17 16 15
2 2 6 8 5 6 4 0 2 2 0 4 7 7 8 9 10 9 5 1 2 5 8 8 10 15 8 5 1 9 8 7 7 9 12 11 7 8 10 9 8 8 8 7 6 4 4 5 7 9 10 13 15 17 19 21 21 23 25 27 28 28 29 33 37 40 39 38 37 36 35 34 33 33 32 30 29 26 23 21 19 19 18 17 16 14
2 3 6 6 5 6 6 5 3 2 4 6 8 9 11 12 11 5 1 0 4 12 16 11 8 13 10 0 5 15 11 7 9 11 13 13 10 9 9 8 8 8 7 7 7 6 5 6 8 8 9 10 14 17 19 20 21 23 25 27 28 28 29 33 39 40 38 38 37 35 35 34 33 33 32 30 28 25 22 21 19 19 18 17 15 14
5 5 6 7 9 8 10 12 6 3 5 6 8 11 13 15 14 8 5 5 10 17 19 13 11 15 16 15 18 21 14 10 13 15 11 9 10 9 8 8 8 7 8 10 9 7 7 7 7 9 9 10 13 16 18 19 21 23 24 26 27 27 28 33 38 40 38 38 37 34 34 34 33 33 32 30 26 24 22 21 19 18 17 16 15 14
2 4 10 14 15 13 15 17 8 2 6 8 10 13 12 14 17 12 8 9 13 13 12 14 18 19 18 21 25 25 23 20 22 22 16 9 8 8 8 8 8 8 10 10 9 7 6 7 8 11 11 11 13 16 17 18 21 23 24 25 27 26 28 34 38 38 36 36 35 33 33 33 33 32 31 28 25 23 22 21 19 17 17 16 15 14
1 6 15 20 23 21 20 23 19 14 11 11 12 14 14 15 15 13 15 17 14 9 10 17 23 21 16 18 24 27 25 23 24 26 22 14 9 7 8 9 10 11 10 9 9 8 7 8 10 11 11 12 14 16 17 17 19 22 23 25 26 26 30 37 37 35 33 32 31 31 32 33 32 31 29 27 24 23 21 20 19 18 17 16 14 13
4 9 14 17 21 20 19 21 22 23 20 15 13 14 16 16 17 20 24 21 13 12 16 20 23 23 17 17 25 27 26 26 27 27 24 19 14 8 6 8 10 12 11 11 13 11 10 11 10 11 12 12 13 15 17 18 19 21 22 24 25 26 32 38 36 32 32 31 28 29 32 32 30 29 28 26 24 23 22 20 19 18 16 15 13 12
3 7 12 15 17 17 18 19 21 24 23 18 14 12 10 12 19 26 23 15 14 22 25 23 26 26 18 19 26 28 28 28 26 26 25 22 18 12 7 9 14 17 15 15 14 14 15 15 15 13 12 10 12 15 17 18 20 22 22 24 25 25 31 38 36 32 33 30 28 31 33 32 30 29 28 27 25 23 22 20 19 17 15 13 12 12
4 8 11 11 12 15 18 21 23 21 17 16 15 13 13 17 23 25 18 10 15 23 24 24 26 21 17 22 28 28 29 26 24 28 26 20 20 19 15 15 19 21 20 17 14 14 16 17 17 15 13 11 12 14 16 17 19 21 22 23 24 26 33 37 36 35 35 31 30 32 33 31 31 29 28 27 25 23 22 20 18 16 14 13 12 11
4 8 7 6 9 13 16 21 22 18 14 15 16 17 21 25 24 21 19 17 18 20 21 21 18 14 17 24 25 26 26 25 27 30 23 18 21 22 17 15 17 20 20 17 14 14 14 15 16 17 16 15 13 13 16 19 19 20 23 24 26 30 35 37 36 36 35 32 32 33 33 32 31 29 27 26 25 23 21 19 17 15 14 12 11 10
4 6 6 7 10 12 15 20 19 15 11 11 15 24 31 29 24 22 24 26 25 20 17 15 12 14 18 20 20 23 26 27 28 23 15 16 21 20 15 14 16 18 18 16 14 14 14 12 13 16 17 16 16 20 26 27 24 23 25 27 29 33 36 36 36 36 33 32 33 34 33 33 32 29 27 26 25 23 20 18 17 15 13 12 10 9
7 9 8 8 8 10 15 17 13 9 10 13 17 23 24 24 26 26 25 28 29 24 18 17 17 18 19 19 21 23 26 29 26 16 12 16 18 15 14 16 18 19 19 17 16 15 14 12 11 13 15 18 22 25 28 28 26 25 25 27 30 34 36 36 36 36 34 33 34 34 33 33 32 30 27 25 24 22 20 18 16 14 13 11 10 10
9 11 9 7 7 8 10 11 10 10 13 15 12 10 14 22 27 26 26 28 30 28 25 24 24 24 24 24 25 24 27 29 22 14 16 20 18 13 13 16 20 21 19 18 17 15 14 12 10 9 12 17 20 22 23 24 25 25 26 28 32 34 35 36 36 35 35 34 34 34 34 33 32 29 27 25 24 21 19 17 15 14 12 10 9 10
12 11 8 7 8 7 5 9 11 8 4 4 6 10 15 18 18 19 22 27 30 30 28 26 26 27 27 27 26 25 27 26 16 12 18 22 19 15 14 16 19 20 19 18 16 15 14 11 8 9 11 15 19 22 24 25 27 27 27 30 33 34 35 36 35 33 34 34 34 34 35 34 32 29 27 25 23 21 19 17 15 13 11 10 10 11
15 11 7 8 9 7 7 10 11 8 3 3 7 12 14 14 16 18 19 22 25 25 23 23 25 27 28 27 27 27 25 19 11 11 19 23 20 16 16 18 19 19 19 18 16 14 11 8 7 9 13 18 23 25 26 27 29 30 30 31 34 35 36 37 35 34 35 35 35 35 34 34 32 30 27 25 23 21 19 17 15 13 11 11 11 11
17 14 11 11 9 8 9 8 7 9 8 9 13 16 17 19 22 23 21 16 12 12 16 20 23 26 27 26 26 25 20 13 8 11 19 23 19 15 16 17 17 17 18 17 15 11 7 6 8 11 17 21 23 27 30 31 34 35 34 35 37 38 38 38 37 37 38 37 36 36 35 34 33 31 28 26 24 21 18 16 14 12 11 11 11 10
20 15 12 11 7 7 10 7 7 10 8 10 16 19 19 21 21 20 19 10 7 10 16 21 23 25 24 23 24 21 13 9 9 12 17 22 18 13 13 13 14 15 14 13 13 10 7 8 9 12 18 19 21 28 33 35 38 38 36 38 40 40 40 40 40 39 39 37 36 35 34 34 32 30 29 26 24 21 19 16 14 11 11 11 10 9
17 10 11 14 9 10 14 9 6 8 5 8 15 18 20 23 20 17 14 5 9 16 22 23 26 26 23 21 20 15 11 11 12 14 18 19 15 10 9 10 11 13 11 10 10 8 7 10 10 11 14 17 24 31 36 39 40 37 36 40 42 42 44 43 42 40 38 36 34 33 32 31 30 28 26 25 23 20 18 16 14 12 12 11 9 8
11 8 11 14 12 14 17 11 6 7 6 9 14 17 19 19 16 16 14 7 11 21 22 22 24 22 19 19 16 12 13 15 15 15 16 16 13 13 13 9 8 8 8 7 7 7 8 10 11 12 13 18 26 31 37 42 37 33 38 40 37 41 45 43 41 41 39 37 36 33 32 30 28 26 24 23 21 20 18 16 15 13 12 10 9 9
8 7 8 11 11 13 14 11 9 9 7 12 18 19 18 14 11 13 15 14 19 22 18 17 19 17 17 19 16 15 16 17 17 15 14 14 15 17 16 11 7 7 5 3 4 7 8 6 8 10 11 18 25 31 40 40 32 33 38 32 28 38 44 41 41 42 40 38 37 34 32 30 28 26 24 22 21 19 18 16 15 13 11 10 9 8
9 8 7 9 9 10 10 10 10 7 8 17 22 17 14 13 12 13 15 16 18 17 14 13 14 14 15 17 17 17 17 17 17 15 14 15 15 14 16 13 9 9 8 5 6 10 10 7 7 9 13 21 28 36 43 38 29 32 33 24 28 41 44 42 44 43 40 39 37 35 34 31 29 27 25 23 22 20 18 17 15 13 12 11 10 7
8 7 6 5 6 8 8 7 6 5 4 14 18 13 12 15 16 16 16 15 13 12 10 10 11 12 14 15 16 17 16 16 16 16 15 14 13 13 15 13 9 9 9 7 7 10 12 9 8 9 14 22 31 38 44 39 31 29 26 24 36 46 44 44 46 44 41 41 39 37 35 33 31 29 26 24 23 21 19 17 16 14 12 11 10 8
3 4 5 4 4 5 6 5 4 8 7 4 7 10 12 13 12 11 13 12 11 9 8 9 10 13 14 13 13 14 14 14 14 14 13 12 12 12 12 10 7 7 7 6 6 9 11 10 9 9 11 19 30 38 42 40 34 27 25 33 45 49 47 47 47 44 43 41 38 37 35 32 30 28 26 25 24 22 21 20 18 15 13 11 10 8
6 7 4 2 5 8 8 5 6 9 11 12 12 14 14 13 11 10 9 9 10 11 10 9 11 14 15 14 13 12 14 15 16 15 14 13 13 12 11 9 6 3 3 4 5 7 9 8 8 9 9 14 26 36 40 39 36 33 34 42 50 50 50 51 48 44 43 41 38 36 35 32 29 27 25 26 25 23 22 21 18 15 12 11 10 8
7 7 5 4 8 8 5 7 13 15 16 17 17 16 13 9 7 7 7 6 8 10 10 11 12 12 12 12 11 11 14 15 16 16 15 14 14 14 13 11 8 4 4 5 6 8 8 7 8 11 10 12 23 34 38 37 36 37 42 48 50 51 52 52 48 44 42 39 37 35 34 33 30 27 26 26 24 23 21 19 18 15 12 12 11 9
8 11 9 8 10 10 10 14 18 19 21 19 13 9 8 7 7 7 7 7 9 11 12 12 12 11 12 13 12 12 14 16 15 14 14 13 13 13 13 12 10 6 4 5 8 11 10 9 12 14 12 13 24 35 36 33 34 40 46 50 51 52 53 50 48 45 41 39 37 34 32 32 31 29 29 27 24 23 21 20 18 14 12 13 12 9
10 12 11 11 14 15 16 17 17 17 19 17 8 4 6 8 9 11 11 11 13 13 13 13 13 11 12 13 13 12 13 15 15 14 14 14 13 13 13 13 11 7 7 7 11 14 13 12 14 15 13 15 26 35 35 33 36 43 49 51 53 54 53 49 46 44 41 37 36 33 31 31 31 30 29 27 24 21 20 20 19 15 13 14 11 8
9 12 12 11 11 12 12 13 14 14 14 12 9 11 13 13 13 15 15 16 17 16 15 16 16 15 14 15 14 14 14 16 16 16 16 14 14 15 15 14 11 9 9 9 12 14 14 14 16 16 14 17 27 34 33 33 39 46 50 53 56 57 55 49 45 42 39 37 36 34 33 32 30 28 29 28 25 21 19 18 17 15 14 12 9 7
9 11 11 9 10 12 13 12 12 11 12 13 15 19 20 18 19 19 18 18 19 19 18 18 18 18 18 18 17 16 17 18 18 18 17 16 16 16 16 15 13 11 10 10 11 12 14 15 15 14 15 20 29 34 34 37 44 49 51 55 58 58 57 53 47 40 36 36 36 35 34 34 31 28 28 27 25 23 20 17 14 12 11 10 9 8
Wind_Direction
192 225 231 239 242 242 239 229 232 250 268 284 286 282 275 275 273 272 274 155 184 230 243 247 252 259 264 265 265 268 269 269 270 266 262 262 264 262 255 251 240 227 206 177 182 185 183 185 183 182 183 181 182 185 183 180 180 180 183 186 186 185 186 185 183 185 185 183 185 184 184 189 189 190 201 210 210 207 210 227 242 253 263 270 279 286
196 227 237 241 251 261 271 266 254 257 267 270 268 273 273 267 266 273 272 143 165 223 257 262 265 264 263 265 266 265 263 262 263 264 263 265 269 267 260 254 245 228 172 160 178 178 177 177 175 177 180 178 181 183 184 183 180 180 183 188 188 185 185 185 185 188 189 188 187 185 186 183 181 186 193 195 199 205 213 230 243 252 263 271 277 283
215 233 245 248 254 272 290 286 268 262 261 260 256 259 265 264 270 273 234 131 165 219 268 278 278 274 269 265 262 257 255 252 251 256 263 269 273 269 263 259 246 200 160 167 180 175 173 173 171 175 176 180 186 185 184 185 182 180 182 186 186 184 185 185 189 191 188 186 185 181 180 175 172 183 188 185 190 206 219 235 246 253 261 269 275 281
222 238 251 250 231 242 252 236 241 255 249 242 240 245 255 258 269 270 203 139 206 220 274 292 282 274 268 258 250 246 246 246 245 252 261 266 264 262 265 268 246 197 171 175 185 180 174 172 174 178 176 180 187 185 183 185 183 183 184 185 183 184 187 186 190 190 182 184 185 180 181 178 175 186 196 199 207 223 231 238 247 255 259 266 273 278
240 242 228 182 180 235 247 214 215 238 242 231 227 235 249 253 258 267 309 347 264 236 260 303 286 267 256 248 242 234 232 241 244 247 260 263 257 257 264 262 240 204 179 179 188 183 179 178 181 184 179 178 183 185 188 189 187 187 187 183 181 186 189 188 190 187 183 189 190 188 189 188 188 193 201 206 214 225 232 237 246 253 255 263 271 276
248 231 122 192 200 213 232 234 222 220 248 243 223 230 245 258 267 275 319 351 302 268 140 342 305 275 226 233 241 195 182 222 229 231 244 254 255 254 255 244 220 200 185 189 192 181 180 181 181 184 180 179 184 188 193 193 192 192 189 182 181 185 187 189 193 193 192 194 194 192 191 189 192 196 199 199 197 201 215 229 237 246 255 264 271 275
246 182 128 228 226 210 227 251 234 207 241 250 230 249 253 262 272 278 297 312 286 281 322 48 314 285 227 208 236 210 193 200 193 226 236 242 250 250 253 229 181 187 191 194 193 178 178 180 179 183 182 184 187 190 195 195 195 196 192 187 185 184 185 191 197 198 198 197 194 194 193 190 192 194 193 190 189 187 196 218 232 245 260 268 271 273
197 179 186 216 223 223 227 251 229 198 226 248 30 358 289 260 265 267 277 259 261 291 286 159 237 276 274 217 218 222 222 210 209 239 244 240 237 235 250 235 167 181 188 186 188 179 181 182 182 184 184 187 187 188 193 194 195 197 194 192 190 189 191 196 199 200 200 198 192 191 191 190 190 189 182 181 194 202 209 224 236 248 259 266 270 271
152 189 199 187 198 224 222 261 206 190 215 261 62 42 65 76 261 238 252 258 273 293 275 194 181 265 282 209 193 210 219 223 226 237 245 250 245 234 243 234 171 180 186 181 183 181 183 184 183 184 182 184 184 187 191 193 195 196 194 194 194 194 196 199 200 200 201 199 195 193 191 190 192 190 188 191 205 216 223 231 239 247 254 260 266 271
69 175 220 185 199 226 199 40 16 207 210 142 114 89 82 97 109 174 246 273 283 274 260 207 167 238 285 206 164 192 206 216 226 231 237 246 250 246 238 209 162 175 184 179 182 184 183 181 181 180 175 177 183 189 192 192 194 193 193 196 197 197 199 201 201 201 201 200 198 198 196 195 195 194 197 202 209 216 222 228 236 243 245 245 248 258
124 90 3 219 217 218 98 65 18 11 102 134 146 116 122 193 173 213 242 268 277 265 245 200 179 208 275 197 144 174 195 198 203 217 238 249 255 251 218 173 165 175 176 175 180 179 174 173 172 171 171 174 180 184 186 189 192 193 195 197 198 199 201 202 202 202 201 200 201 201 201 201 199 196 198 200 204 208 211 216 225 234 235 232 236 249
199 176 198 217 175 115 108 90 46 45 102 164 177 209 233 230 205 219 218 164 249 265 223 184 186 199 235 218 152 183 192 187 181 211 258 268 268 263 187 153 166 171 171 170 171 169 164 164 167 170 174 174 175 178 181 187 189 191 196 196 196 198 201 203 202 202 201 201 203 203 204 206 203 202 203 203 203 204 210 219 224 226 230 238 247 261
213 207 190 147 128 179 169 148 97 105 188 205 196 201 243 255 242 236 225 193 235 256 134 159 191 207 235 246 237 237 204 189 194 233 262 262 263 267 153 139 155 161 171 168 166 169 168 169 171 176 178 175 177 180 182 184 185 190 194 193 192 195 199 202 201 201 201 202 204 204 206 208 207 208 210 211 210 209 214 224 228 228 232 239 246 258
221 221 172 163 202 189 185 196 208 190 184 193 191 187 210 238 259 258 246 240 247 249 125 127 186 238 259 255 232 234 226 209 212 234 245 248 251 250 160 137 152 165 181 179 174 175 176 180 178 179 182 180 181 183 182 184 185 188 191 191 192 193 196 200 200 199 200 202 204 206 207 208 209 209 211 213 214 215 218 224 228 231 235 240 246 256
244 272 175 170 171 169 187 210 215 134 173 194 194 197 217 229 248 260 259 259 270 291 234 153 180 250 275 276 198 221 226 213 213 230 233 240 243 234 141 138 170 180 191 192 186 186 183 184 180 180 185 184 182 182 182 184 186 187 189 191 191 191 194 198 198 197 199 200 202 204 205 207 208 209 211 214 216 218 221 224 226 230 236 241 248 258
239 266 165 139 113 160 182 215 171 111 179 193 182 206 231 234 228 249 272 274 303 314 275 194 220 253 270 277 178 179 207 193 199 227 228 234 236 222 184 190 196 184 187 192 197 198 190 184 183 182 186 185 182 182 184 186 189 189 190 192 191 190 195 198 197 196 197 198 198 200 203 204 205 207 209 212 215 219 221 223 226 230 237 243 249 258
235 272 134 114 7 154 165 264 165 186 220 163 176 205 218 296 229 245 270 285 115 278 268 224 248 263 274 268 189 155 178 179 191 223 222 226 233 227 225 221 210 195 189 190 196 199 192 187 188 187 188 187 182 183 186 188 191 191 189 189 189 189 194 197 196 196 196 196 196 198 201 201 202 204 206 209 212 216 221 224 227 231 236 243 250 259
232 271 167 165 233 139 8 336 139 313 302 145 187 206 114 46 315 249 263 267 245 263 270 263 266 268 274 272 165 164 188 188 203 226 224 225 232 234 237 233 225 212 195 188 190 195 198 193 192 193 194 193 187 185 188 189 191 192 189 188 187 188 192 195 194 195 194 194 194 196 198 199 201 204 205 207 209 214 219 222 226 230 236 243 251 257
208 256 235 161 315 115 99 250 188 208 229 172 287 283 95 223 207 203 227 247 253 258 270 273 275 270 257 258 190 183 192 198 214 222 218 223 227 230 237 240 239 221 201 200 198 196 199 197 196 196 195 196 191 186 186 186 188 190 190 189 189 189 193 195 194 194 194 194 194 194 196 199 200 203 205 205 208 212 215 219 224 229 236 243 248 252
174 226 243 32 7 128 141 226 206 180 180 249 305 265 219 248 225 211 211 226 242 247 266 278 282 275 253 247 237 199 187 201 216 212 206 216 222 223 228 238 241 228 215 212 209 203 196 197 200 196 192 194 193 186 183 183 186 188 187 188 189 188 191 194 194 193 193 194 195 194 195 197 199 201 203 204 207 210 214 218 223 228 235 240 244 247
155 220 237 26 9 204 197 206 195 187 181 183 224 216 197 197 258 285 244 231 237 244 255 267 273 274 273 170 220 187 178 207 220 215 212 207 213 219 220 229 236 235 230 219 214 212 197 191 195 192 189 191 191 186 182 182 185 186 185 187 188 185 186 190 192 193 193 193 194 194 193 195 197 199 201 203 207 209 212 217 221 227 233 235 239 242
176 209 222 205 207 224 223 200 196 201 189 183 197 198 197 189 179 232 238 225 218 235 244 248 261 267 271 96 143 159 161 235 249 239 237 211 206 216 217 225 229 230 235 228 219 213 194 180 182 186 186 187 188 186 181 181 182 183 184 186 186 184 186 188 190 193 194 192 193 193 192 194 196 197 199 201 204 207 210 214 219 225 230 232 236 240
183 180 222 228 226 234 240 193 213 249 228 222 218 205 204 191 185 214 227 215 193 218 242 245 253 263 265 98 119 172 110 286 274 254 253 234 206 214 225 229 227 228 234 232 220 202 180 172 175 185 189 188 190 186 181 181 182 184 186 185 185 187 187 188 190 193 192 191 192 191 191 192 194 195 197 199 201 204 207 211 216 221 226 230 234 238
101 90 224 242 266 281 285 41 32 5 296 248 241 219 213 207 207 221 231 246 205 207 230 237 243 261 267 105 142 282 283 271 259 251 256 255 235 231 235 229 223 225 228 226 213 182 159 165 174 187 193 192 193 189 183 183 182 185 186 185 188 189 185 187 192 192 191 191 190 188 189 191 191 192 194 196 199 202 205 208 213 218 223 228 232 236
178 185 212 234 252 266 268 245 230 198 195 224 233 220 218 219 218 229 259 308 245 236 239 246 250 256 261 145 279 275 265 236 234 243 254 260 253 238 227 218 217 217 217 221 208 180 175 182 182 190 197 196 195 190 187 185 183 186 187 186 190 188 184 188 192 190 189 189 187 186 188 189 189 191 192 194 198 201 202 205 211 217 222 226 230 234
198 194 195 222 231 225 233 239 234 159 185 217 231 220 215 215 213 220 231 219 237 243 241 245 255 259 270 287 287 281 275 268 267 267 265 253 245 235 215 208 211 208 216 221 211 192 189 190 190 195 200 199 196 192 189 186 185 186 187 188 189 185 181 187 190 189 188 188 185 184 185 186 187 190 191 192 195 197 201 205 209 215 221 225 228 232
182 205 210 226 235 229 232 242 246 167 174 192 212 214 207 210 214 218 227 228 237 245 243 245 253 261 271 279 283 283 283 286 285 282 278 255 230 222 214 213 213 215 221 219 212 202 188 190 199 201 200 200 198 195 191 187 186 186 186 187 187 183 182 185 188 187 185 184 183 182 182 184 186 187 188 190 191 194 200 204 208 212 218 223 228 234
202 236 227 232 238 237 240 246 247 244 224 198 197 205 205 209 210 211 224 231 236 249 251 246 251 259 264 268 274 277 280 284 281 279 280 275 254 228 214 218 224 228 229 223 216 206 192 200 206 200 200 198 194 194 193 191 188 186 186 186 183 181 185 187 186 182 180 180 179 180 181 183 184 185 186 187 189 193 198 203 208 212 218 225 232 239
227 243 236 239 245 245 249 254 256 258 254 233 211 208 209 208 206 215 229 231 225 241 251 251 255 261 260 259 265 271 276 278 276 278 283 285 279 257 198 206 231 238 238 233 227 216 206 209 206 197 198 195 189 190 190 190 189 187 186 185 181 180 185 187 183 178 178 177 175 177 179 180 180 181 183 185 188 192 197 201 207 212 219 226 233 239
221 244 241 248 257 256 256 259 260 262 265 263 250 240 239 234 228 233 238 228 220 238 248 251 255 259 260 260 263 268 270 272 275 279 280 282 282 270 240 251 269 270 263 251 240 229 222 220 215 207 198 186 185 189 189 188 188 186 185 183 179 178 183 185 182 178 178 176 174 176 177 177 178 179 182 185 188 192 197 201 206 212 218 224 231 239
215 233 239 249 259 254 250 251 253 254 261 268 270 275 279 269 256 251 251 232 226 240 245 246 251 258 261 260 261 262 265 270 275 274 274 280 283 277 275 280 280 279 275 265 252 243 235 228 225 220 208 195 190 187 185 185 183 183 183 181 176 177 182 184 181 180 179 176 174 175 174 175 176 178 181 185 188 192 196 200 205 211 216 222 230 239
208 231 233 232 246 245 240 243 246 249 261 270 276 273 261 255 256 257 256 247 240 245 249 249 250 250 250 255 259 261 264 268 267 267 271 277 275 277 283 281 272 271 272 270 265 259 248 235 229 226 220 212 198 185 184 182 177 178 181 179 176 178 182 182 181 180 178 175 173 173 173 175 175 177 181 185 188 192 196 199 203 208 214 220 227 236
188 217 215 215 239 243 238 242 247 253 266 266 252 246 244 246 251 253 254 253 249 247 250 247 238 235 243 253 261 264 266 264 261 262 268 268 269 276 279 270 265 266 270 272 270 265 258 246 231 226 225 220 205 198 197 191 182 180 182 179 177 179 179 179 179 177 174 173 173 172 173 175 176 177 181 185 189 192 194 198 201 206 212 217 224 231
195 215 223 222 238 243 239 246 252 245 237 235 234 236 238 244 246 245 247 250 249 248 247 249 253 254 255 255 255 258 261 261 262 265 262 262 268 274 272 268 269 271 274 276 273 268 266 259 242 227 223 221 211 204 200 193 187 185 182 178 177 177 176 176 175 174 172 171 172 173 173 175 176 177 180 184 188 190 193 197 199 204 209 213 219 226
209 221 229 227 235 243 239 242 243 230 228 237 242 230 227 235 239 242 247 250 251 252 250 251 254 255 256 256 254 255 257 259 266 275 268 266 266 265 266 268 271 274 276 276 275 272 268 263 252 229 218 215 206 194 186 184 184 181 176 175 175 175 175 175 173 172 171 170 171 172 173 174 175 177 180 183 186 188 191 194 197 201 205 210 218 225
219 225 226 224 231 235 219 217 228 237 237 234 227 217 223 233 238 245 252 249 246 247 246 247 250 251 253 255 255 256 259 262 270 275 269 268 264 258 258 259 264 269 271 271 271 270 272 269 242 212 203 194 184 179 178 180 179 174 170 172 173 173 174 173 171 171 171 170 172 173 174 175 175 176 179 181 183 185 189 192 195 198 201 206 215 223
218 222 221 225 224 219 220 221 229 254 272 162 194 217 219 218 219 229 243 242 235 236 242 246 250 251 251 252 254 257 261 267 278 272 265 263 258 254 254 254 259 263 264 267 267 264 268 262 217 195 183 174 173 176 178 177 174 169 166 168 171 171 172 172 171 172 172 171 173 174 175 176 176 176 178 179 181 184 186 190 193 195 198 207 214 219
215 216 218 227 218 207 229 233 225 243 234 194 205 221 220 220 222 229 244 244 221 218 236 242 244 247 248 250 254 257 260 265 263 260 263 263 258 251 249 252 254 254 256 261 262 258 242 204 189 183 173 169 174 180 179 176 173 168 164 167 170 170 170 172 173 174 173 173 174 175 176 178 178 177 177 178 180 182 183 186 190 193 199 210 216 220
217 216 218 231 227 211 231 237 220 232 227 198 214 225 228 232 233 238 251 249 168 189 229 238 241 244 245 249 252 255 259 258 248 251 258 261 261 257 252 252 250 249 251 251 252 252 218 180 173 174 171 171 177 181 179 176 172 167 166 169 170 169 171 174 176 175 173 173 174 175 176 177 178 178 177 178 179 180 180 183 186 190 199 210 217 225
218 214 216 228 231 223 233 242 232 238 230 196 212 222 229 234 236 240 251 230 162 201 223 232 239 243 245 250 254 255 252 247 245 249 253 259 267 266 255 249 244 247 249 241 239 237 194 172 164 167 177 184 185 182 179 174 170 169 170 170 170 172 176 176 175 172 171 171 172 173 174 175 176 177 177 177 177 177 179 180 181 186 197 207 213 224
213 206 211 223 227 224 230 237 239 236 217 199 212 219 224 232 235 236 244 231 207 220 224 228 237 244 249 256 260 257 252 249 249 254 261 269 276 269 258 247 233 242 252 241 225 196 172 175 180 185 195 193 185 179 175 172 170 171 172 170 172 177 177 173 170 168 168 169 169 170 172 173 176 177 177 178 177 176 177 177 180 187 193 198 206 219
201 205 210 217 222 226 228 235 248 244 201 201 223 225 220 227 235 234 239 241 237 238 237 237 242 248 252 256 259 258 258 259 258 257 260 261 261 264 266 256 226 225 238 234 202 182 172 174 180 186 192 186 181 178 175 172 172 173 172 170 176 177 172 167 166 166 165 165 166 167 169 171 175 176 176 178 177 176 177 178 182 189 192 193 203 219
189 202 211 204 206 225 231 225 240 246 182 197 222 227 214 221 236 239 241 243 245 248 249 247 250 254 255 257 259 260 262 262 261 258 254 252 252 258 265 259 240 225 217 207 199 189 181 176 181 185 182 179 179 178 176 175 174 173 172 172 173 171 166 165 166 164 163 163 164 166 169 171 174 175 176 177 177 176 177 180 184 189 190 189 196 211
201 205 227 215 194 214 226 217 239 286 213 204 221 230 223 229 238 245 251 254 255 257 260 262 264 266 266 267 269 269 267 263 262 260 258 257 253 252 257 258 246 226 215 208 199 188 184 187 189 182 177 177 178 178 179 178 173 170 171 170 168 166 164 164 165 163 162 163 163 166 169 170 173 174 174 175 176 176 177 180 183 187 187 183 188 203
264 303 306 281 243 254 272 279 316 337 340 293 257 265 271 276 285 290 290 291 293 298 307 313 313 312 313 315 312 305 299 294 290 286 282 279 275 270 273 273 255 230 215 205 190 183 189 193 182 168 168 176 179 180 181 179 174 172 173 169 167 166 164 163 163 162 161 162 162 164 166 166 169 171 172 174 176 177 179 180 179 180 181 180 186 199
310 327 334 296 307 315 306 313 353 351 342 335 322 310 310 318 328 339 340 332 328 334 339 336 331 330 332 337 339 331 321 319 319 315 311 310 306 304 306 302 286 255 210 206 186 175 183 182 170 168 170 177 182 183 182 182 180 176 171 168 168 167 165 163 161 160 160 160 161 163 163 162 164 167 170 174 176 176 178 178 176 175 178 180 185 192
310 332 342 316 311 312 305 331 343 333 318 312 307 305 313 324 329 338 346 338 329 329 327 325 324 323 325 328 331 325 318 318 318 315 314 315 313 311 311 305 293 265 219 209 183 169 171 170 176 182 180 181 185 185 184 186 184 176 170 168 168 168 166 163 161 159 158 159 159 161 161 161 162 165 169 173 175 175 176 176 174 172 175 180 183 185
318 334 336 322 309 300 290 300 309 304 296 294 291 296 320 328 321 319 321 319 317 314 311 313 314 313 314 315 313 311 309 307 305 304 303 303 302 299 297 294 287 265 224 187 171 173 180 188 192 191 187 186 187 185 185 185 182 175 170 169 169 168 165 163 160 158 158 159 159 159 161 162 163 165 169 172 174 174 175 174 172 172 179 181 179 178
301 306 304 301 299 294 290 296 303 300 294 292 296 327 328 314 308 310 309 309 309 307 305 305 304 303 302 299 295 296 295 292 290 288 286 287 286 282 281 283 275 245 211 194 188 188 193 199 196 193 193 189 184 182 183 183 179 175 171 170 170 169 165 161 159 157 156 158 159 159 160 162 164 166 169 171 170 171 175 175 172 173 177 176 171 166
267 271 276 285 286 280 282 295 303 302 297 298 314 324 317 310 309 309 310 310 309 307 306 304 300 297 291 285 284 285 283 281 280 279 277 277 278 276 277 278 270 242 219 209 201 198 202 205 200 195 193 185 179 180 182 180 177 175 173 173 173 170 165 160 156 155 156 158 159 159 160 161 163 166 169 170 169 169 173 173 170 170 171 170 169 160
260 263 267 270 270 273 282 291 297 298 298 302 309 311 309 309 307 304 305 305 302 300 299 296 294 293 289 285 283 280 278 278 278 278 277 276 274 273 272 272 268 253 232 212 201 205 210 207 199 193 188 182 180 181 182 180 176 175 175 174 174 172 166 160 155 154 157 159 159 160 161 162 162 164 166 167 168 167 166 166 169 175 176 171 166 153